map of PRG home
Great Circle Mapper logo
PRG - Airport
Location
City:  Prague, Czech Republic
Near (Alt.):Praha
Name:Ruzyne
ICAO / IATA:LKPR / PRG

Details
Type:Airport (Aerodrome, Airfield)
Use:Public/Civil, International (customs port of entry)
Latitude:5006'03"N (50.100833)
Longitude:1415'36"E (14.260000)
Datum:other
Elevation:1247 ft (380 m)
Variation:3.53E (WMM2015 magnetic declination)
0.13 annual change
Runways:3
Longest:12189 × 148 ft (3715 × 45 m), paved

Time
Time Zone:UTC+1 (DST+2)
Local Time:

Weather
METAR:LKPR 271630Z 12006KT CAVOK 20/10 Q0999 NOSIG
TAF:LKPR 270500Z 2706/2812 VRB02KT 3000 BR NSC
BECMG 2706/2707 14006KT CAVOK PROB40
TEMPO 2713/2720 24014G24KT 7000 TSRA SCT030CB BKN033
BECMG 2720/2723 33008KT 9999 -RA BKN033

Related Locations
Nearby:
Farthest:CHT: 11769 mi / 18940 km
Waitangi [Tuuta], Chatham Islands, NZ

Find:

   beyond  
but within

Other Information
Maps:
NOTAMs:
Links:
Sources:

  
flag of Czech Republic
flag of Prague
  

Sectional Chart

Flight Planning
at skyvector.com

Satellite Image

Google Maps Satellite View

 

Copyright © 2004-2015 Karl L. Swartz. All rights reserved.
The Great Circle Mapper name and logo are trademarks of the Great Circle Mapper.
All other trademarks mentioned herein belong to their respective owners.
Please see credits for attibutions and further copyright information.

  Follow gcmap on Facebook Follow gcmap on Twitter Follow gcmap on Google+

hCard Microformat

Geo Microformat